Flag for U.S.A. Weather past 2 weeks in Charlottesville, Virginia, U.S.A.

Now
43 °F

Light rain. Overcast.


Feels Like: 40 °F
Forecast: 42 / 52 °F
Wind: 5 mph from Southwest

Location: Charlottesville-Albemarle Airport

Current Time: Apr 25, 2015 at 6:07:21 PM

Latest Report: Apr 25, 2015 at 4:53 PM


Visibility: 10 mi

Pressure: 29.80 "Hg

Humidity: 86%

Dew point: 39 °F

Location of CharlottesvilleLocation

Historic Weather in Charlottesville — Graph

°F

Charlottesville temperature yesterday

Maximum temperature yesterday: 65 °F (at 5:53 PM)
Minimum temperature yesterday: 42 °F (at 6:53 AM)
Average temperature yesterday: 52 °F

Past Weeks' High & Low Weather Summary

 TemperatureHumidityPressure
High78 °F (Apr 17, 1:53 PM)100% (Apr 18, 5:53 AM)30.40 "Hg (Apr 18, 5:53 AM)
Low37 °F (Apr 12, 5:53 AM)13% (Apr 24, 4:53 PM)29.51 "Hg (Apr 20, 4:53 PM)
Average59 °F56%30.00 "Hg
* Reported Apr 10 3:53 PM — Apr 25 3:53 PM, Charlottesville, Weather by CustomWeather, © 2015

Note: Actual official high and low records may vary slightly from our data, if they occured in-between our weather recording intervals... More about our weather records

Advertising

Charlottesville weather history for previous 24 hours

 ConditionsComfort  
Time TempWeatherWind HumidityBarometerVisibility
3:53 PM
Sat, Apr 25
43 °FLight rain. Overcast.No wind82%29.81 "Hg6 mi
2:53 PM45 °FLight rain. Overcast.6 mph68%29.85 "Hg9 mi
1:53 PM47 °FOvercast.6 mph52%29.88 "Hg10 mi
12:53 PM48 °FLight rain. Overcast.3 mph46%29.90 "Hg10 mi
11:53 AM49 °FLight rain. Overcast.3 mph39%29.92 "Hg10 mi
10:53 AM48 °FLight rain. Overcast.3 mph44%29.93 "Hg10 mi
9:53 AM48 °FOvercast.6 mph37%29.96 "Hg10 mi
8:53 AM47 °FOvercast.5 mph44%29.96 "Hg7 mi
7:53 AM45 °FPartly sunny.3 mph53%29.96 "Hg10 mi
6:53 AM45 °FOvercast.3 mph51%29.95 "Hg10 mi
5:53 AM43 °FOvercast.9 mph62%29.95 "Hg10 mi
4:53 AM42 °FOvercast.No wind65%29.93 "Hg10 mi
3:53 AM41 °FClear.No wind67%29.92 "Hg10 mi
2:53 AM45 °FOvercast.No wind63%29.94 "Hg10 mi
1:53 AM44 °FOvercast.No wind55%29.95 "Hg10 mi
12:53 AM46 °FClear.6 mph37%29.95 "Hg10 mi
11:53 PM
Fri, Apr 24
49 °FClear.No wind32%29.95 "Hg10 mi
10:53 PM49 °FClear.3 mph35%29.95 "Hg10 mi
9:53 PM51 °FClear.7 mph29%29.94 "Hg10 mi
8:53 PM56 °FSunny.6 mph22%29.94 "Hg10 mi
6:53 PM63 °FSunny.5 mph17%29.89 "Hg10 mi
Weather by CustomWeather, © 2015

See weather overviewHow to use our weather pages